Find Starlink 5274

NORAD ID: 55395 Int'l Des: 2023-014 Owner: SPXS Country: US Constellation: starlink operational
LEOCIRCULAR

当前视图

正在加载3D地球...

About Starlink 5274

Starlink 5274 (NORAD 55395) is a starlink constellation satellite (v1.5) launched Jan 31, 2023 by SPXS of US. It operates in LEO, CIRCULAR orbit with a mass of 305.00 kg.

关于 Starlink 5274

正在加载描述...

即将过境

Passes for default location (London). Set your location on the main map for personalized predictions.

高度历史

Loading altitude history...

两行轨道根数

1 55395U 23014E 26178.20389355 .00000527 00000-0 52001-4 0 9992
2 55395 69.9995 148.1588 0002988 268.6759 91.4058 14.98323251188463
Epoch: Jun 27, 2026 • Age: 7 hours

当前状态

高度 575.8 km
速度 7.57 km/s
星下点 26.42°N, 70.83°E
发射日期 Jan 31, 2023
运行时间 3.4 years
类型 internet

技术详情

分类 Payload
质量 305.00 kg
干质量 290.00 kg
总质量 305.00 kg
长度 0.20 m
直径 2.80 m
跨度 9.00 m
形状 Box + pan
制造商 SPXS
平台类型 Starlink
阶段状态 In Orbit
所有者/国家 SPXS/US

Most Searched